Location: Unspecified
(0.0000°N, 0.0000°E)
Time: 20:11:49
(UTC+00:00)

Courier 1B Rocket - Pass Details

Date: 27 November 2019
Orbit: 920 x 1202 km, 28.2° (Epoch: 10 August)

Event Time Altitude Azimuth Distance (km) Brightness Sun altitude
Rises 21:27:55 0° 272° (W) 4,060 8.7 -49.8°
Reaches altitude 10° 21:31:17 10° 260° (W) 3,118 8.0 -50.5°
Enters shadow 21:33:48 18° 245° (WSW) 2,545 7.5 -51.1°
Maximum altitude 21:37:33 26° 206° (SSW) 2,155 - -51.8°
Drops below altitude 10° 21:43:50 10° 153° (SSE) 3,112 - -53.1°
Sets 21:47:12 0° 140° (SE) 4,051 - -53.8°
